Terminal Aerodrome Forecast
Issued by NWS

Home | Current Version | Previous Version | Text Only | Print | Product List | Glossary On
Versions: 1 2 3 4 5 6 7 8 9 10 11 12 13 14 15 16 17 18 19 20 21 22 23 24 25 26 27 28 29 30 31 32 33 34 35 36 37 38 39 40 41 42 43 44 45 46 47 48 49 50
000
FTUS44 KHGX 311508 AAB
TAFIAH
TAF AMD
KIAH 311508Z 3115/0118 10010KT P6SM BKN028 BKN045 BKN200
     FM312100 12014KT P6SM BKN015 OVC030
     FM010000 13012KT P6SM VCSH OVC012
     FM010600 12010KT 4SM -RA BR OVC007
     FM011500 19005KT P6SM VCSH BKN010=

USA.gov is the U.S. government's official web portal to all federal, state and local government web resources and services.